This is the latest recevied weather packets stored in our database for station/object N9NDF. If no packets are shown the sender has not sent any weather packets the latest 10 day(s).
| Time | Temp. | Humidity | Pressure | Rain* | Wind** | Luminosity | Snow |
|---|---|---|---|---|---|---|---|
| 1777654458 | 12.22° C | 52% | 995.2 hPa | 0 mm | - | 986 W/m² | - |
| 1777654398 | 12.22° C | 51% | 995.2 hPa | 0 mm | - | 979 W/m² | - |
| 1777654338 | 12.22° C | 51% | 995.2 hPa | 0 mm | - | 971 W/m² | - |
| 1777654278 | 12.22° C | 53% | 995.2 hPa | 0 mm | - | 964 W/m² | - |
| 1777654252 | 12.22° C | 53% | 995.3 hPa | 0 mm | - | 988 W/m² | - |
| 1777654158 | 12.22° C | 53% | 995.2 hPa | 0 mm | - | 612 W/m² | - |
| 1777654098 | 12.22° C | 54% | 995.2 hPa | 0 mm | - | 810 W/m² | - |
| 1777654038 | 12.22° C | 52% | 995.2 hPa | 0 mm | - | 632 W/m² | - |
| 1777653978 | 12.22° C | 52% | 995.1 hPa | 0 mm | - | 434 W/m² | - |
| 1777653918 | 12.22° C | 52% | 995.2 hPa | 0 mm | - | 406 W/m² | - |
| 1777653858 | 12.22° C | 52% | 995.2 hPa | 0 mm | - | 443 W/m² | - |
| 1777653798 | 12.22° C | 52% | 995.1 hPa | 0 mm | - | 317 W/m² | - |
| 1777653739 | 12.22° C | 52% | 995.1 hPa | 0 mm | - | 387 W/m² | - |
| 1777653678 | 12.22° C | 51% | 995.1 hPa | 0 mm | - | 552 W/m² | - |
| 1777653618 | 12.22° C | 50% | 995.1 hPa | 0 mm | - | 424 W/m² | - |
| 1777653558 | 12.22° C | 50% | 995.2 hPa | 0 mm | - | 363 W/m² | - |
| 1777653495 | 12.22° C | 51% | 995.1 hPa | 0 mm | - | 243 W/m² | - |
| 1777653435 | 12.22° C | 50% | 995.2 hPa | 0 mm | - | 433 W/m² | - |
| 1777653374 | 12.22° C | 54% | 995.2 hPa | 0 mm | - | 1010 W/m² | - |
| 1777653315 | 12.22° C | 52% | 995.2 hPa | 0 mm | - | 1007 W/m² | - |
| 1777653255 | 12.22° C | 50% | 995.2 hPa | 0 mm | - | 971 W/m² | - |
| 1777653194 | 11.67° C | 50% | 995.1 hPa | 0 mm | - | 932 W/m² | - |
| 1777653135 | 11.67° C | 53% | 995.2 hPa | 0 mm | - | 961 W/m² | - |
| 1777653074 | 11.67° C | 55% | 995.2 hPa | 0 mm | - | 945 W/m² | - |
| 1777653014 | 11.67° C | 56% | 995.2 hPa | 0 mm | - | 950 W/m² | - |
* Rain latest hour (hover to see other rain measurements)
** Current wind speed in m/s (hover to see current wind gust speed)